Dewpoint
48 48 48 48 47 46 44 43 42 41 41 40 39 38 38 37 37 37 37 38 38 38 38 38 39 39 38 39 39 39 39 39 39 39 39 39 39 38 37 37 37 39 39 39 39 38 37 36 35 36 36 36 36 36 35 35 35 34 34 34 34 35 35 35 34 34 33 32 31
48 48 48 47 46 45 44 43 43 42 42 42 40 39 38 38 37 37 37 37 38 38 38 39 41 40 39 39 40 40 39 39 39 39 39 39 38 37 36 37 37 39 39 39 39 38 37 35 35 35 36 36 36 35 35 34 34 34 34 34 34 35 36 35 35 35 34 32 31
48 48 48 48 47 46 45 43 43 42 42 41 40 40 39 39 38 38 37 37 38 38 39 39 40 40 40 40 40 40 40 39 40 40 40 39 38 37 36 37 37 39 39 39 39 38 37 35 35 35 35 36 35 35 34 34 34 34 34 34 34 35 36 36 36 35 34 32 31
49 48 48 48 48 47 45 44 43 43 42 42 40 39 39 39 39 38 38 38 38 38 39 39 39 39 39 39 40 40 40 39 40 40 40 40 38 37 36 37 38 39 39 39 38 37 36 35 35 35 35 35 35 34 34 35 34 34 34 34 35 35 36 36 36 35 34 32 31
49 48 48 48 48 47 46 44 43 43 43 42 41 40 39 39 39 38 38 37 38 39 40 40 39 38 38 40 41 42 41 40 40 40 40 40 39 37 37 37 38 39 39 39 38 37 36 35 35 34 35 35 35 34 34 34 34 34 34 35 35 35 35 35 35 35 34 33 32
50 48 48 48 48 48 46 45 44 44 43 43 42 41 40 39 39 39 39 38 39 40 41 40 38 38 39 43 44 43 43 41 42 42 41 39 39 38 37 37 38 39 39 39 38 37 36 35 34 34 34 35 34 34 34 34 34 33 33 34 35 35 35 35 35 34 34 33 32
50 49 48 48 48 48 46 45 44 44 44 43 43 42 41 40 39 39 39 39 40 40 40 39 38 39 41 43 44 44 43 42 43 42 41 40 39 38 37 38 39 39 39 39 38 37 36 34 34 34 34 34 34 34 34 34 34 33 33 33 35 35 34 34 34 34 34 33 32
51 50 49 48 48 47 46 44 44 44 44 43 43 42 42 41 40 40 40 40 40 40 39 38 39 39 41 43 43 43 43 41 42 42 43 43 41 39 38 41 41 40 39 39 38 37 36 35 34 34 34 34 34 34 34 34 33 32 32 32 34 34 34 32 33 33 33 32 32
52 50 49 49 48 47 45 44 44 44 44 44 43 43 43 42 40 40 40 40 40 39 39 38 39 40 41 43 43 42 41 40 40 41 42 42 40 39 39 42 43 41 39 39 39 37 36 36 35 35 34 34 34 34 34 33 32 31 31 32 34 34 34 32 32 33 33 32 31
52 51 50 49 48 47 45 44 44 44 45 44 43 43 43 41 40 40 41 40 40 39 39 38 39 40 41 42 42 41 40 39 39 40 41 41 39 38 38 39 40 40 40 40 40 39 38 38 38 36 34 34 33 33 33 33 32 31 31 33 33 34 34 32 32 32 32 32 31
52 51 50 49 48 47 45 44 44 44 45 44 44 43 43 41 41 41 40 39 40 40 39 39 39 40 41 42 41 40 39 39 39 39 40 41 39 38 37 37 38 39 39 39 42 41 39 37 35 34 33 33 32 32 32 32 31 31 32 33 33 33 33 33 32 31 31 31 31
52 51 50 49 48 47 45 44 44 44 44 44 43 43 43 42 41 41 40 40 41 40 39 39 39 40 40 41 40 40 39 39 39 39 40 40 39 38 37 36 37 38 38 38 39 39 38 35 34 33 32 32 32 31 32 32 33 33 33 33 33 32 32 33 32 31 31 30 31
52 51 50 49 47 46 45 44 44 44 44 44 43 43 43 41 41 40 40 40 41 40 39 39 39 39 40 40 40 40 39 39 39 39 39 40 39 38 37 36 36 37 37 37 37 37 36 34 33 32 31 31 32 33 34 34 35 35 34 34 32 32 32 32 32 31 30 30 30
52 51 49 48 47 46 45 44 44 44 45 45 44 43 43 42 41 40 40 40 40 39 39 39 39 39 39 39 40 40 40 39 39 39 39 39 39 38 37 36 36 37 37 37 36 35 34 34 33 32 31 31 33 34 35 36 36 36 35 33 32 31 31 31 31 31 30 30 30
52 51 49 48 46 45 45 44 45 45 45 45 44 44 43 42 41 41 40 40 40 39 39 39 39 39 39 39 40 40 40 40 40 40 40 40 39 38 37 36 36 36 37 36 36 35 34 33 33 32 32 32 34 35 36 37 37 36 34 32 31 30 30 30 30 30 30 29 29
52 50 49 48 46 45 45 45 45 45 45 45 45 44 43 43 42 41 41 41 40 39 39 38 39 39 39 39 40 40 40 40 40 40 40 40 39 38 37 35 36 36 36 35 35 35 34 34 34 34 33 34 36 37 37 37 36 35 34 31 30 30 30 30 30 30 30 29 29
52 50 49 48 46 46 45 45 45 46 45 45 45 44 44 43 42 41 41 41 40 40 39 39 39 39 39 40 40 40 40 40 40 40 40 40 39 38 37 35 35 36 36 35 35 34 34 35 35 35 35 36 38 38 38 37 35 34 32 31 30 30 30 29 29 29 29 29 29
52 50 49 48 47 46 46 46 46 46 46 46 45 45 44 43 43 42 41 40 41 40 39 39 39 39 39 40 40 39 39 39 39 39 39 39 39 38 37 35 35 35 35 35 34 34 34 34 35 37 38 39 39 39 38 36 34 32 31 31 30 30 29 29 28 28 28 28 28
52 51 49 48 47 47 46 46 46 46 46 46 45 45 44 43 43 42 41 41 41 40 39 39 39 39 39 40 40 39 39 39 39 39 39 39 39 38 37 35 35 35 35 34 34 34 33 34 35 37 39 39 39 38 36 35 33 32 31 32 31 30 29 28 28 28 27 27 27
52 51 50 49 48 47 47 46 46 46 46 46 46 45 45 44 43 42 42 41 41 41 40 39 39 39 39 39 39 39 38 38 38 38 38 39 39 38 37 36 35 35 34 34 34 33 33 34 36 38 39 39 38 37 35 34 33 32 32 32 31 30 29 28 28 27 27 27 27
52 51 50 49 48 48 47 47 47 46 46 46 46 46 45 44 43 42 42 42 42 42 41 40 40 39 39 39 39 38 38 38 38 38 38 39 39 38 37 35 35 34 34 33 33 33 34 35 37 38 38 37 37 36 35 34 33 32 32 32 31 30 30 29 28 27 27 26 26
52 51 50 49 49 48 48 47 47 47 46 46 46 46 46 45 43 43 43 42 42 42 42 41 41 40 39 39 39 38 38 38 38 38 38 39 38 38 36 35 34 34 33 33 33 34 35 36 37 37 37 36 36 36 35 34 34 33 32 31 31 30 30 29 28 27 27 26 26
52 51 50 49 49 48 48 47 47 47 46 46 46 46 45 44 43 43 43 43 43 43 42 42 42 40 39 39 39 38 38 39 39 38 38 39 38 37 36 34 34 33 33 33 34 35 35 36 36 36 36 37 37 37 36 35 34 33 31 30 30 30 30 29 28 28 27 27 27
53 52 50 49 48 48 48 48 48 47 47 46 46 45 45 44 44 44 44 44 44 43 43 43 42 41 40 39 39 38 38 38 38 38 38 38 37 36 35 34 34 33 34 36 37 37 37 36 36 36 36 37 37 37 37 36 34 33 31 30 30 30 29 29 29 28 28 27 27
53 52 50 49 48 48 48 48 48 48 47 47 46 45 45 44 44 45 45 45 45 44 43 43 42 41 40 39 39 39 38 38 38 38 38 37 36 35 34 34 34 35 37 38 38 37 37 37 37 36 35 36 37 37 37 36 35 34 32 30 30 30 29 29 29 28 28 28 28
52 52 50 49 48 48 48 48 48 48 48 47 47 46 46 45 45 46 46 46 46 45 44 43 42 41 40 39 39 39 39 39 38 38 37 36 35 35 34 34 36 39 40 39 37 36 36 36 36 35 35 37 36 36 36 36 35 34 32 31 31 30 30 29 29 29 29 28 28
52 52 52 51 49 48 48 48 48 48 48 48 47 47 47 46 47 47 47 47 46 45 44 43 42 40 39 39 39 39 39 39 39 38 36 35 35 35 35 37 40 42 41 39 36 36 36 36 36 36 36 37 36 36 36 35 34 34 32 31 31 30 30 30 30 30 30 30 29
52 53 54 54 52 50 48 48 48 48 48 48 48 48 48 48 48 48 47 46 45 44 43 43 42 41 40 40 39 39 38 39 39 38 36 35 36 36 37 38 39 40 39 38 36 36 36 36 36 36 36 36 37 36 36 35 34 33 32 32 31 31 31 31 31 31 31 31 31
53 55 56 57 56 54 52 49 48 48 49 49 49 49 49 48 48 48 46 45 44 43 43 43 42 41 41 40 39 38 38 38 38 38 38 37 39 39 39 39 39 38 38 37 36 36 36 36 36 36 36 36 37 36 35 33 33 32 32 32 32 32 32 32 32 32 32 33 33
54 55 56 57 56 55 54 53 50 49 49 49 49 49 48 48 47 46 45 43 43 42 42 43 41 41 40 39 39 38 38 38 38 38 38 38 39 39 39 39 39 38 37 36 36 36 36 37 36 36 35 35 35 35 34 33 32 32 32 33 33 33 33 33 33 33 33 34 34
53 53 53 54 54 54 54 52 50 49 48 48 48 47 47 46 45 44 43 42 42 41 41 41 40 39 39 39 39 39 38 38 38 38 39 39 39 39 39 40 39 37 36 36 36 36 36 37 36 36 35 35 35 34 34 32 32 33 33 33 34 34 34 34 34 34 34 34 34
48 48 48 48 49 51 51 49 47 46 45 45 44 44 43 43 43 42 42 41 40 40 40 40 39 39 39 39 39 39 39 38 38 39 39 40 40 40 40 40 39 37 35 36 36 36 36 36 36 36 35 35 34 34 34 32 33 33 33 34 34 34 34 34 34 34 34 34 34
44 44 44 43 45 46 47 46 44 43 42 41 41 41 41 42 41 41 40 40 39 39 39 39 39 39 39 39 39 39 39 39 39 39 40 40 41 41 40 39 39 36 35 36 36 36 36 36 36 36 35 34 34 33 33 33 32 33 33 33 33 33 33 33 32 32 32 32 32
43 42 42 42 43 45 46 47 46 45 44 43 43 43 42 42 40 39 39 39 39 39 39 39 39 39 39 40 39 39 39 39 39 40 40 40 40 40 39 39 38 36 35 35 36 36 36 36 36 36 35 34 34 33 32 32 32 32 32 32 32 32 32 31 31 31 31 31 31
42 42 43 43 45 47 48 49 49 49 48 47 45 44 43 40 39 39 39 39 39 39 39 40 40 40 40 41 41 40 40 40 40 40 40 40 39 39 38 38 37 35 35 35 35 36 36 36 36 36 35 34 33 32 32 32 32 31 31 31 31 30 30 30 30 30 30 30 30
44 45 46 47 48 50 50 51 51 50 50 48 46 44 43 40 39 39 39 38 39 39 40 40 41 41 41 41 41 41 40 40 40 39 39 39 38 38 37 36 35 35 35 35 35 36 36 36 35 35 34 34 33 32 31 31 31 31 31 30 30 30 30 29 30 30 30 30 31
47 48 48 49 49 50 50 50 50 49 48 47 45 44 42 40 39 39 39 39 39 40 40 41 41 41 41 42 41 41 40 40 39 39 38 37 37 36 36 35 35 34 34 35 35 35 35 36 35 35 34 34 32 31 31 31 31 31 30 30 30 30 30 30 30 30 31 31 31
47 48 48 48 48 47 48 48 47 46 45 44 44 43 42 40 40 39 39 39 40 40 41 41 41 41 41 41 41 41 40 39 39 38 37 36 35 35 35 35 35 34 34 34 35 35 35 35 35 34 34 33 32 31 31 31 30 30 30 30 30 31 31 31 32 32 32 32 33
45 45 45 45 44 44 44 45 45 44 43 43 42 41 41 40 40 40 39 39 40 41 41 41 41 41 41 40 40 40 39 39 38 37 36 35 35 34 34 35 35 34 34 34 34 35 35 35 35 34 34 33 32 31 31 31 30 30 31 31 31 32 32 33 33 33 32 32 34
42 43 43 43 43 43 43 43 43 42 42 41 41 40 40 39 39 39 39 39 40 41 41 41 41 40 39 39 39 39 39 38 38 37 36 35 35 35 35 35 35 34 34 34 34 35 35 35 35 34 34 33 32 32 32 31 31 31 31 32 32 32 32 32 32 32 31 31 33
42 42 42 42 41 41 41 40 40 40 40 40 40 39 39 38 38 39 39 39 40 40 40 40 40 39 39 38 38 38 38 38 38 37 36 35 35 35 35 34 34 34 33 34 34 35 35 35 35 34 34 33 33 33 32 32 32 32 32 33 33 32 32 31 30 30 30 30 30